Weather History for Toledo, OH

Change the Weather History Date:

Tuesday, October 1, 2013

  Actual Average Record
Temperature  
Mean Temperature 63 °F 58 °F  
Max Temperature 74 °F 69 °F 90 °F (1897)
Min Temperature 51 °F 46 °F 29 °F (1899)
Degree Days  
Heating Degree Days 2 8  
Month to date heating degree days 2 8  
Since 1 July heating degree days 149 132  
Cooling Degree Days 0 1  
Month to date cooling degree days 0 1  
Year to date cooling degree days 772 785  
Growing Degree Days 12 (Base 50)    
Moisture  
Dew Point 57 °F    
Average Humidity 81    
Maximum Humidity 100    
Minimum Humidity 61    
Precipitation  
Precipitation 0.00 in 0.09 in 0.72 in (1977)
Month to date precipitation 0.00 0.09  
Year to date precipitation 28.76 26.19  
Snow  
Snow 0.00 in 0.00 in - ()
Month to date snowfall 0.0 0.0  
Since 1 July snowfall 0.0 0.0  
Since 1 September snowfall 0.0 0.0  
Snow Depth 0.00 in    
Sea Level Pressure  
Sea Level Pressure 30.01 in    
Wind  
Wind Speed 7 mph (SW)    
Max Wind Speed 21 mph    
Max Gust Speed 25 mph    
Visibility 4 miles    
Events Fog    
T = Trace of Precipitation, MM = Missing Value Source: NWS Daily Summary

Daily Weather History Graph

Daily Weather History Graph

Search for Another Location

Airport:

Trip Planner

Search our weather history database for the weather conditions in past years. The results will help you decide how hot, cold, wet, or windy it might be!

Date:

Astronomy

Oct. 01, 2013 Rise Set
Actual Time 7:32 AM EDT 7:16 PM EDT
Civil Twilight 7:04 AM EDT 7:44 PM EDT
Nautical Twilight 6:32 AM EDT 8:16 PM EDT
Astronomical Twilight 5:59 AM EDT 8:48 PM EDT
Moon 4:03 AM EDT (10/1) 5:21 PM EDT (10/1)
Length of Visible Light 12h 39m
Length of Day
11h 44m
Waning Crescent, 12% of the Moon is Illuminated
Oct 1
Waning Crescent
Oct 4
New
Oct 11
First Quarter
Oct 18
Full
Oct 26
Last Quarter

Hourly Weather History & Observations

Time (EDT) Temp. Dew Point Humidity Pressure Visibility Wind Dir Wind Speed Gust Speed Precip Events Conditions
12:52 AM 53.1 °F 53.1 °F 100% 29.98 in 6.0 mi Calm Calm - N/A   Partly Cloudy
1:52 AM 52.0 °F 52.0 °F 100% 29.97 in 5.0 mi Calm Calm - N/A   Clear
2:52 AM 55.9 °F 54.0 °F 93% 29.98 in 7.0 mi SW 3.5 mph - N/A   Clear
3:52 AM 55.9 °F 55.9 °F 100% 29.99 in 5.0 mi SW 3.5 mph - N/A   Clear
4:27 AM 53.6 °F 53.6 °F 100% 29.99 in 1.8 mi Calm Calm - N/A   Clear
4:30 AM 53.6 °F 53.6 °F 100% 29.99 in 1.0 mi Calm Calm - N/A   Mist
4:41 AM 53.6 °F 53.6 °F 100% 29.99 in 1.5 mi SW 3.5 mph - N/A   Partly Cloudy
4:45 AM 53.6 °F 53.6 °F 100% 30.00 in 3.0 mi Calm Calm - N/A   Partly Cloudy
4:52 AM 53.1 °F 53.1 °F 100% 30.00 in 3.0 mi Calm Calm - N/A   Partly Cloudy
4:54 AM 53.6 °F 53.6 °F 100% 30.00 in 1.8 mi Calm Calm - N/A   Partly Cloudy
4:56 AM 53.6 °F 53.6 °F 100% 30.00 in 1.0 mi Calm Calm - N/A   Mist
5:05 AM 53.6 °F 53.6 °F 100% 30.00 in 0.5 mi Calm Calm - N/A Fog Fog
5:13 AM 51.8 °F 51.8 °F 100% 30.00 in 0.2 mi Calm Calm - N/A Fog Fog
5:26 AM 53.6 °F 51.8 °F 94% 30.01 in 0.8 mi Calm Calm - N/A   Mist
5:32 AM 53.6 °F 51.8 °F 94% 30.01 in 1.5 mi Calm Calm - N/A   Mostly Cloudy
5:40 AM 53.6 °F 53.6 °F 100% 30.01 in 0.8 mi Calm Calm - N/A   Mist
5:52 AM 52.0 °F 51.1 °F 97% 30.01 in 0.2 mi Calm Calm - N/A Fog Fog
6:02 AM 51.8 °F 51.8 °F 100% 30.01 in 1.0 mi SSW 3.5 mph - N/A   Mist
6:06 AM 53.6 °F 51.8 °F 94% 30.01 in 2.0 mi SSW 3.5 mph - N/A   Overcast
6:10 AM 53.6 °F 53.6 °F 100% 30.01 in 1.0 mi SSW 3.5 mph - N/A   Mist
6:16 AM 55.4 °F 55.4 °F 100% 30.01 in 0.2 mi SSW 3.5 mph - N/A Fog Fog
6:24 AM 55.4 °F 55.4 °F 100% 30.01 in 0.2 mi SSW 3.5 mph - N/A Fog Fog
6:52 AM 55.9 °F 55.9 °F 100% 30.02 in 0.2 mi Calm Calm - N/A Fog Fog
7:52 AM 57.0 °F 57.0 °F 100% 30.04 in 0.2 mi SSW 3.5 mph - N/A Fog Fog
8:10 AM 57.2 °F 57.2 °F 100% 30.04 in 0.2 mi SSW 3.5 mph - N/A Fog Fog
8:52 AM 57.9 °F 57.9 °F 100% 30.05 in 0.2 mi Calm Calm - N/A Fog Fog
9:27 AM 57.2 °F 57.2 °F 100% 30.04 in 0.8 mi SW 8.1 mph - N/A   Overcast
9:36 AM 59.0 °F 59.0 °F 100% 30.04 in 1.5 mi WSW 8.1 mph - N/A   Overcast
9:52 AM 59.0 °F 59.0 °F 100% 30.05 in 1.8 mi SW 6.9 mph - N/A   Overcast
10:00 AM 60.8 °F 59.0 °F 94% 30.05 in 2.0 mi WSW 6.9 mph - N/A   Overcast
10:20 AM 60.8 °F 60.8 °F 100% 30.04 in 1.5 mi SW 8.1 mph - N/A   Overcast
10:52 AM 61.0 °F 61.0 °F 100% 30.05 in 2.0 mi SW 8.1 mph - N/A   Overcast
11:23 AM 62.6 °F 60.8 °F 94% 30.05 in 3.0 mi SW 8.1 mph - N/A   Overcast
11:32 AM 62.6 °F 60.8 °F 94% 30.05 in 4.0 mi SW 5.8 mph - N/A   Overcast
11:52 AM 64.0 °F 61.0 °F 90% 30.04 in 5.0 mi WSW 8.1 mph - N/A   Overcast
12:04 PM 66.2 °F 60.8 °F 83% 30.04 in 5.0 mi WSW 8.1 mph - N/A   Haze
12:24 PM 66.2 °F 60.8 °F 83% 30.03 in 7.0 mi SW 10.4 mph - N/A   Mostly Cloudy
12:35 PM 69.8 °F 60.8 °F 73% 30.03 in 9.0 mi SW 8.1 mph - N/A   Scattered Clouds
12:52 PM 70.0 °F 61.0 °F 73% 30.03 in 9.0 mi WSW 8.1 mph - N/A   Scattered Clouds
1:42 PM 71.6 °F 60.8 °F 69% 30.01 in 10.0 mi WSW 12.7 mph 19.6 mph N/A   Mostly Cloudy
1:49 PM 71.6 °F 60.8 °F 69% 30.01 in 10.0 mi West 15.0 mph - N/A   Mostly Cloudy
1:52 PM 72.0 °F 60.1 °F 66% 30.01 in 10.0 mi WSW 16.1 mph - N/A   Mostly Cloudy
2:52 PM 73.0 °F 59.0 °F 61% 29.99 in 10.0 mi WSW 18.4 mph - N/A   Clear
3:52 PM 72.0 °F 60.1 °F 66% 29.99 in 10.0 mi WSW 18.4 mph - N/A   Scattered Clouds
4:52 PM 72.0 °F 60.1 °F 66% 29.98 in 10.0 mi West 11.5 mph 21.9 mph N/A   Clear
5:52 PM 72.0 °F 60.1 °F 66% 29.97 in 10.0 mi WSW 8.1 mph - N/A   Clear
6:52 PM 70.0 °F 60.1 °F 71% 29.97 in 10.0 mi SW 5.8 mph - N/A   Clear
7:52 PM 66.9 °F 59.0 °F 76% 29.97 in 10.0 mi SSW 5.8 mph - N/A   Clear
8:52 PM 66.0 °F 57.9 °F 75% 29.98 in 10.0 mi SSW 6.9 mph - N/A   Clear
9:52 PM 66.0 °F 57.9 °F 75% 29.98 in 10.0 mi SW 9.2 mph - N/A   Clear
10:52 PM 64.9 °F 59.0 °F 81% 29.99 in 10.0 mi SW 6.9 mph - N/A   Clear
11:52 PM 64.0 °F 59.0 °F 84% 29.99 in 10.0 mi SW 5.8 mph - N/A   Clear